Погода в Вашингтоне

США     39°21′30″N   120°47′59″W
темп.,
°C
ветер,
м/с
пор.,
м/с
влажн.,
%
обл.,
%
осадки,
мм/ч
давл.,
гПа
погр.,
м
16 октября, сб
сб1623:00+11всв33315 0.0 102237
02:00+10всв33315 0.0 102138
05:00+10всв33305 0.0 102043
08:00+11всв34285 0.0 101953
11:00+22юз22145 0.0 10161009
14:00+24юз44145 0.0 10141622
17:00+20юз33170 0.0 10141024
20:00+11всв32320 0.0 101735
17 октября, вс
вс1723:00+10всв32345 0.0 101736
02:00+9всв333367 0.0 101639
05:00+9всв333440 0.0 101438
08:00+9в22315 0.0 101341
11:00+16ююз6121934 0.0 10111728
14:00+16ююз7161829 0.0 10082148
17:00+14юз6162933 0.0 10072447
20:00+5ю31091100 0.6 10101280
18 октября, пн
пн1823:00+2ю2499100 14.7 1013397
02:00+2ю2698100 1.6 1014678
05:00+2ююз2598100 2.4 1015627
08:00+2ююз139893 0.7 1018277
11:00+5юз118295 1.0 1017853
14:00+6зсз117391 0.1 1017774
17:00+7всв126632 0.2 1016833
20:00+1всв348632 0.0 101859
19 октября, вт
вт1923:00+1всв34814 0.0 101952
02:00+1всв3478100 0.0 101950
05:00+1всв347598 0.0 101851
08:00+2всв346897 0.0 101853
11:00+12ю12403 0.0 1015775
14:00+14ююз34330 0.0 10131306
17:00+12ююз34455 0.0 1014653
20:00+4в3275100 0.0 101840
20 октября, ср
ср2023:00+4в337544 0.0 101840
02:00+4в3268100 0.0 101937
05:00+6в2363100 0.0 101954
08:00+7в2265100 0.1 102052
11:00+10ююв1353100 0.1 1019198
14:00+8всв2275100 0.3 102045
17:00+9в2377100 0.5 101966
20:00+7всв3484100 0.4 102166